This is the latest recevied weather packets stored in our database for station/object KR4ELZ. If no packets are shown the sender has not sent any weather packets the latest 10 day(s).
| Time | Temp. | Humidity | Pressure | Rain* | Wind** | Luminosity | Snow |
|---|---|---|---|---|---|---|---|
| 1778001478 | 16.11° C | 97% | 1011.9 hPa | 6.1 mm | - | 51 W/m² | - |
| 1778001175 | 16.11° C | 97% | 1011.6 hPa | 6.1 mm | - | 48 W/m² | - |
| 1778000872 | 16.11° C | 97% | 1011.5 hPa | 4.83 mm | - | 46 W/m² | - |
| 1778000570 | 16.11° C | 97% | 1011.9 hPa | 3.05 mm | - | 43 W/m² | - |
| 1777999966 | 16.11° C | 96% | 1012.1 hPa | 4.32 mm | - | 39 W/m² | - |
| 1777999662 | 16.11° C | 96% | 1011.7 hPa | 6.1 mm | - | 38 W/m² | - |
| 1777999359 | 16.11° C | 96% | 1011.8 hPa | 4.83 mm | - | 30 W/m² | - |
| 1777999057 | 16.11° C | 96% | 1011.7 hPa | 3.05 mm | - | 28 W/m² | - |
| 1777998756 | 16.11° C | 96% | 1011.7 hPa | 1.27 mm | - | 29 W/m² | - |
| 1777998452 | 16.11° C | 96% | 1011.7 hPa | 1.78 mm | - | 36 W/m² | - |
| 1777998149 | 16.11° C | 95% | 1012 hPa | 3.05 mm | - | 34 W/m² | - |
| 1777997846 | 16.11° C | 95% | 1011.8 hPa | 3.05 mm | - | 30 W/m² | - |
| 1777997544 | 16.11° C | 94% | 1011.3 hPa | 1.78 mm | - | 27 W/m² | - |
| 1777997241 | 16.11° C | 93% | 1011.4 hPa | 1.27 mm | - | 29 W/m² | - |
| 1777996939 | 16.11° C | 92% | 1011.3 hPa | 1.27 mm | - | 31 W/m² | - |
| 1777996635 | 16.11° C | 92% | 1011.7 hPa | 1.78 mm | - | 35 W/m² | - |
| 1777996331 | 16.11° C | 91% | 1011.7 hPa | 1.78 mm | - | 41 W/m² | - |
| 1777996028 | 16.11° C | 90% | 1011.7 hPa | 1.27 mm | - | 39 W/m² | - |
| 1777995724 | 16.67° C | 89% | 1011.6 hPa | 3.05 mm | - | 31 W/m² | - |
| 1777995421 | 16.67° C | 87% | 1011.6 hPa | 1.78 mm | - | 30 W/m² | - |
| 1777995118 | 17.22° C | 84% | 1012 hPa | 0 mm | - | 30 W/m² | - |
| 1777994815 | 17.22° C | 81% | 1011.8 hPa | 0 mm | - | 30 W/m² | - |
| 1777994511 | 17.22° C | 80% | 1012.1 hPa | 0 mm | - | 24 W/m² | - |
| 1777994206 | 17.22° C | 80% | 1012.1 hPa | 0 mm | - | 24 W/m² | - |
| 1777993904 | 17.78° C | 79% | 1012.3 hPa | 0 mm | - | 30 W/m² | - |
* Rain latest hour (hover to see other rain measurements)
** Current wind speed in m/s (hover to see current wind gust speed)